$DATE,$TIME,DM0600B,DM0602B,DM0604B,DM0614B,DM0616B,DM0618B,DM0624B,DM0628B,DM0630B,DM0634B,DM0606B,DM0608B,DM0610B
11/06/94,00:00:00,0,0,0,0,99,56,148,65,92,0,0,27,0
11/06/94,00:05:00,0,0,0,0,102,58,154,65,92,0,0,26,0
11/06/94,00:10:00,0,0,0,0,96,55,145,65,96,0,0,35,0
11/06/94,00:15:00,0,0,0,0,100,57,151,66,96,0,0,24,0
11/06/94,00:20:00,0,0,0,0,102,59,154,65,96,0,0,30,0
11/06/94,00:25:00,0,0,0,0,102,59,154,65,96,0,0,32,0
11/06/94,00:30:00,0,0,0,0,104,60,157,65,96,0,0,24,0
11/06/94,00:35:00,0,0,0,0,103,60,157,65,95,0,0,33,0
11/06/94,00:40:00,0,0,0,0,98,57,148,65,96,0,0,27,0
11/06/94,00:45:00,0,0,0,0,92,54,141,65,98,0,0,27,0
11/06/94,00:50:00,0,0,0,0,100,59,153,65,96,0,0,35,0
11/06/94,00:55:00,0,0,0,0,102,60,156,65,96,0,0,24,0
11/06/94,01:00:00,0,0,0,0,98,58,150,65,96,0,0,30,0
11/06/94,01:05:00,0,0,0,0,99,58,151,65,96,0,0,32,0
11/06/94,01:10:00,0,0,0,0,98,58,149,65,97,0,0,24,0
11/06/94,01:15:00,0,0,0,0,93,55,143,65,96,0,0,33,0
11/06/94,01:20:00,0,0,0,0,96,56,146,65,96,0,0,28,0
11/06/94,01:25:00,0,0,0,0,84,48,126,65,96,0,0,27,0
11/06/94,01:30:00,0,0,0,0,85,47,128,65,96,0,0,36,0
11/06/94,01:35:00,0,0,0,0,90,46,131,65,96,0,0,27,0
11/06/94,01:40:00,0,0,0,0,96,43,134,65,96,0,0,30,0
11/06/94,01:45:00,0,0,0,0,96,39,130,63,89,0,0,36,0
11/06/94,01:50:00,0,0,0,0,90,35,120,63,89,0,0,25,0
11/06/94,01:55:00,0,0,0,0,89,36,120,63,89,0,0,34,4
11/06/94,02:00:00,0,0,0,0,88,37,120,63,89,0,0,35,18
11/06/94,02:05:00,0,0,0,0,83,38,117,63,89,0,0,28,29
11/06/94,02:10:00,0,0,0,0,88,44,127,63,76,0,0,35,23
11/06/94,02:15:00,0,0,0,0,91,50,136,63,76,0,0,24,13
11/06/94,02:20:00,0,0,0,0,86,52,133,63,76,0,0,29,18
11/06/94,02:25:00,0,0,0,0,86,55,135,63,76,0,0,29,31
11/06/94,02:30:00,0,0,0,0,81,52,128,63,76,0,0,22,20
11/06/94,02:35:00,0,0,0,0,78,51,124,63,76,0,0,32,30
11/06/94,02:40:00,0,0,0,0,78,51,124,63,76,0,0,25,22
11/06/94,02:45:00,0,0,0,0,73,47,115,63,85,0,0,26,29
11/06/94,02:50:00,1,0,0,0,79,52,122,63,76,0,0,33,26
11/06/94,02:55:00,0,0,0,0,82,53,130,63,76,0,0,22,23
11/06/94,03:00:00,0,0,0,0,81,53,129,63,76,0,0,28,29
11/06/94,03:05:00,0,0,0,0,86,55,135,63,76,0,0,27,19
11/06/94,03:10:00,0,0,0,0,85,56,136,63,84,0,0,21,30
11/06/94,03:15:00,0,0,0,0,85,55,135,63,92,0,0,31,23
11/06/94,03:20:00,0,0,0,0,78,51,124,63,76,0,0,25,22
11/06/94,03:25:00,0,0,0,0,82,54,131,63,76,0,0,23,28
11/06/94,03:30:00,0,0,0,0,69,45,109,63,84,0,0,32,20
11/06/94,03:35:00,0,0,0,0,62,40,98,64,84,0,0,23,31
11/06/94,03:40:00,0,0,0,0,68,46,109,63,86,0,0,29,26
11/06/94,03:45:00,0,0,0,0,73,50,118,62,84,0,0,29,22
11/06/94,03:50:00,0,0,0,0,70,50,114,62,84,0,0,23,32
11/06/94,03:55:00,0,0,0,0,67,49,112,65,84,0,0,33,24
11/06/94,04:00:00,0,0,0,0,61,43,101,65,84,0,0,25,24
11/06/94,04:05:00,0,0,0,0,64,46,101,65,84,0,0,28,32
11/06/94,04:10:00,0,0,0,0,65,46,108,65,84,0,0,34,26
11/06/94,04:15:00,0,0,0,0,69,49,113,65,84,0,0,23,22
11/06/94,04:20:00,0,0,0,0,65,45,105,65,92,0,0,32,31
11/06/94,04:25:00,0,0,0,0,67,45,108,65,92,0,0,28,29
11/06/94,04:30:00,0,0,0,0,63,42,101,65,92,0,0,27,23
11/06/94,04:35:00,0,0,0,0,63,42,102,65,92,0,0,36,29
11/06/94,04:40:00,0,0,0,0,59,38,93,65,93,0,0,25,33
11/06/94,04:45:00,0,0,0,0,70,44,109,65,92,0,0,31,28
11/06/94,04:50:00,0,0,0,0,65,40,101,65,96,0,0,32,24
11/06/94,04:55:00,0,0,0,0,60,36,93,65,96,0,0,26,33
11/06/94,05:00:00,0,0,0,0,66,41,103,65,96,0,0,36,33
11/06/94,05:05:00,0,0,0,0,58,35,89,65,96,0,0,26,29
11/06/94,05:10:00,0,0,0,0,59,36,92,65,96,0,0,32,27
11/06/94,05:15:00,0,0,0,0,55,33,85,65,96,0,0,37,35
11/06/94,05:20:00,0,0,0,0,56,33,86,65,96,0,0,28,34
11/06/94,05:25:00,0,0,0,0,59,35,90,65,96,0,0,36,29
11/06/94,05:30:00,0,0,0,0,59,35,91,65,96,0,0,33,27
11/06/94,05:35:00,0,0,0,0,54,31,82,65,97,0,0,30,37
11/06/94,05:40:00,0,0,0,0,54,32,84,66,97,0,0,38,34
11/06/94,05:45:00,0,0,0,0,54,32,82,66,97,0,0,29,30
11/06/94,05:50:00,0,0,0,0,54,31,82,66,97,0,0,34,30
11/06/94,05:55:00,0,0,0,0,51,30,78,66,97,0,0,40,39
11/06/94,06:00:00,0,0,0,0,57,33,88,66,97,0,0,29,34
11/06/94,06:05:00,0,0,0,0,58,34,88,63,97,0,0,36,27
11/06/94,06:10:00,0,0,0,0,57,33,86,63,97,0,0,37,32
11/06/94,06:15:00,0,0,0,0,43,25,65,66,97,0,0,29,38
11/06/94,06:20:00,0,0,0,0,36,21,56,64,97,0,0,37,33
11/06/94,06:25:00,0,0,0,0,38,23,61,64,97,0,0,40,30
11/06/94,06:30:00,0,0,0,0,46,27,71,63,97,0,0,33,40
11/06/94,06:35:00,0,0,0,0,40,23,61,64,97,0,0,33,35
11/06/94,06:40:00,0,0,0,0,38,22,60,64,97,0,0,40,29
11/06/94,06:45:00,0,0,0,0,37,22,58,64,97,0,0,41,41
11/06/94,06:50:00,0,0,0,0,40,23,62,64,97,0,0,34,35
11/06/94,06:55:00,0,0,0,0,36,21,55,64,97,0,0,34,30
11/06/94,07:00:00,0,0,0,0,43,25,67,64,97,0,0,40,41
11/06/94,07:05:00,0,0,0,0,32,19,49,64,97,0,0,32,35
11/06/94,07:10:00,0,0,0,0,32,19,50,64,97,0,0,36,30
11/06/94,07:15:00,0,0,0,0,36,21,55,64,97,0,0,41,42
11/06/94,07:20:00,0,0,0,0,32,19,48,64,97,0,0,42,35
11/06/94,07:25:00,0,0,0,0,29,17,45,64,97,0,0,42,31
11/06/94,07:30:00,0,0,0,0,34,20,54,64,97,0,0,34,41
11/06/94,07:35:00,0,0,0,0,38,22,59,64,89,0,0,35,33
11/06/94,07:40:00,0,0,0,0,29,17,44,64,89,0,0,42,34
11/06/94,07:45:00,0,0,0,0,22,13,34,64,89,0,0,32,41
11/06/94,07:50:00,0,0,0,0,22,13,35,64,81,0,0,35,33
11/06/94,07:55:00,0,0,0,0,24,14,37,64,98,0,0,43,38
11/06/94,08:00:00,0,0,0,0,29,18,45,64,97,0,0,30,40
11/06/94,08:05:00,0,0,0,0,29,18,45,64,97,0,0,36,32
11/06/94,08:10:00,0,0,0,0,28,18,44,62,97,0,0,43,41
11/06/94,08:15:00,0,0,0,0,27,17,44,65,97,0,0,31,39
11/06/94,08:20:00,0,0,0,0,21,13,33,64,97,0,0,37,32
11/06/94,08:25:00,0,0,0,0,23,14,36,64,97,0,0,43,44
11/06/94,08:30:00,0,0,0,0,15,9,23,64,89,0,0,43,36
11/06/94,08:35:00,0,0,0,0,18,12,30,64,89,0,0,44,32
11/06/94,08:40:00,0,0,0,0,19,12,31,64,89,0,0,31,43
11/06/94,08:45:00,0,0,0,0,20,12,32,64,89,0,0,39,34
11/06/94,08:50:00,0,0,0,0,20,12,31,65,85,0,0,43,34
11/06/94,08:55:00,0,0,0,0,17,10,27,64,78,0,0,32,42
11/06/94,09:00:00,0,0,0,0,15,9,24,64,78,0,0,36,35
11/06/94,09:05:00,0,0,0,0,16,9,25,64,78,0,0,43,36
11/06/94,09:10:00,0,0,0,0,16,10,25,64,78,0,0,42,41
11/06/94,09:15:00,0,0,0,0,17,10,27,64,78,0,0,43,33
11/06/94,09:20:00,0,0,0,0,17,10,27,64,78,0,0,31,36
11/06/94,09:25:00,0,0,0,0,15,9,24,64,78,0,0,38,40
11/06/94,09:30:00,0,0,0,0,13,8,21,65,78,0,0,43,33
11/06/94,09:35:00,0,0,0,0,12,7,19,65,80,0,0,42,38
11/06/94,09:40:00,0,0,0,0,9,6,15,65,80,0,0,43,40
11/06/94,09:45:00,0,0,0,0,10,6,17,65,80,0,0,31,32
11/06/94,09:50:00,0,0,0,0,10,6,16,65,80,0,0,39,44
11/06/94,09:55:00,0,0,0,0,9,6,15,65,80,0,13,43,38
11/06/94,10:00:00,0,0,0,0,11,6,17,65,79,0,29,42,31
11/06/94,10:05:00,0,0,0,0,12,7,19,65,79,0,41,33,41
11/06/94,10:10:00,0,0,0,0,10,6,16,65,79,0,42,35,39
11/06/94,10:15:00,0,0,0,0,8,5,14,64,79,0,42,42,32
11/06/94,10:20:00,0,0,0,0,8,5,13,64,79,0,34,31,34
11/06/94,10:25:00,0,0,0,0,7,5,12,64,79,0,42,36,42
11/06/94,10:30:00,0,0,0,0,7,5,12,64,79,0,34,43,34
11/06/94,10:35:00,0,0,0,0,7,4,12,64,79,0,45,29,31
11/06/94,10:40:00,0,0,0,0,7,4,12,64,80,0,37,37,43
11/06/94,10:45:00,0,0,0,0,7,4,11,64,79,0,36,43,35
11/06/94,10:50:00,0,0,0,0,6,4,11,64,80,0,42,29,31
11/06/94,10:55:00,0,0,0,0,6,4,11,64,80,0,33,40,41
11/06/94,11:00:00,0,0,0,0,7,4,12,64,79,0,42,39,38
11/06/94,11:05:00,0,0,0,0,8,5,13,64,80,0,38,32,32
11/06/94,11:10:00,0,0,0,0,8,5,13,64,80,0,33,40,36
11/06/94,11:15:00,0,0,0,0,8,5,13,64,79,0,44,35,42
11/06/94,11:20:00,0,0,0,0,8,5,13,64,113,0,36,33,34
11/06/94,11:25:00,0,0,0,0,7,5,13,64,79,0,33,41,31
11/06/94,11:30:00,0,0,0,0,7,5,12,64,79,0,43,41,43
11/06/94,11:35:00,0,0,0,0,7,4,12,64,79,0,37,33,37
11/06/94,11:40:00,0,0,0,0,6,4,11,64,79,0,34,40,31
11/06/94,11:45:00,0,0,0,0,6,4,10,65,79,0,43,40,41
11/06/94,11:50:00,0,0,0,0,6,4,10,65,79,0,39,32,38
11/06/94,11:55:00,0,0,0,0,5,4,10,65,85,0,33,41,31
11/06/94,12:00:00,0,0,0,0,5,3,9,65,80,0,42,40,42
11/06/94,12:05:00,0,0,0,0,5,3,9,65,80,0,36,42,38
11/06/94,12:10:00,0,0,0,0,5,3,9,65,80,0,41,34,31
11/06/94,12:15:00,0,0,0,0,5,3,9,65,80,0,42,37,42
11/06/94,12:20:00,0,0,0,0,5,3,9,65,80,0,35,43,38
11/06/94,12:25:00,0,0,0,0,5,3,9,65,80,0,34,28,32
11/06/94,12:30:00,0,0,0,0,5,3,9,65,80,0,42,38,39
11/06/94,12:35:00,0,0,0,0,5,3,9,65,80,0,34,43,40
11/06/94,12:40:00,0,0,0,0,5,3,8,64,80,0,43,41,32
11/06/94,12:45:00,0,0,0,0,5,3,8,65,80,0,39,38,36
11/06/94,12:50:00,0,0,0,0,5,3,8,65,80,0,34,33,41
11/06/94,12:55:00,0,0,0,0,5,3,8,65,80,0,43,40,32
11/06/94,13:00:00,0,0,0,0,5,3,9,65,85,0,37,43,38
11/06/94,13:05:00,0,0,0,0,5,3,9,65,85,0,33,30,40
11/06/94,13:10:00,0,0,0,0,5,3,9,65,85,0,43,37,32
11/06/94,13:15:00,0,0,0,0,5,3,9,65,85,0,34,42,42
11/06/94,13:20:00,0,0,0,0,5,3,9,64,85,0,40,43,38
11/06/94,13:25:00,0,0,0,0,5,3,9,65,85,0,40,30,32
11/06/94,13:30:00,0,0,0,0,5,3,9,64,85,0,33,40,42
11/06/94,13:35:00,0,0,0,0,5,4,9,64,85,0,43,43,37
11/06/94,13:40:00,0,0,0,0,5,4,10,65,85,0,36,30,31
11/06/94,13:45:00,0,0,0,0,6,4,10,64,85,0,34,40,44
11/06/94,13:50:00,0,0,0,0,6,4,10,64,85,0,40,43,35
11/06/94,13:55:00,0,0,0,0,6,4,10,64,83,0,33,34,31
11/06/94,14:00:00,0,0,0,0,6,4,11,64,83,0,44,35,44
11/06/94,14:05:00,0,0,0,0,6,4,11,64,83,0,37,43,36
11/06/94,14:10:00,0,0,0,0,7,4,11,65,83,0,34,29,31
11/06/94,14:15:00,0,0,0,0,7,4,11,64,83,0,40,37,43
11/06/94,14:20:00,2,0,6,0,7,4,12,64,83,0,33,43,34
11/06/94,14:25:00,0,0,0,0,7,4,12,64,83,0,45,29,32
11/06/94,14:30:00,0,0,0,0,7,4,12,64,83,0,36,37,42
11/06/94,14:35:00,0,0,0,0,8,4,12,64,83,0,39,43,33
11/06/94,14:40:00,0,0,0,0,8,5,13,64,83,0,40,29,35
11/06/94,14:45:00,0,0,0,0,8,5,14,65,83,0,33,36,41
11/06/94,14:50:00,0,0,0,0,9,5,14,64,92,0,43,43,32
11/06/94,14:55:00,0,0,0,0,9,6,15,65,91,0,35,40,41
11/06/94,15:00:00,0,0,0,0,9,6,15,65,91,0,37,43,38
11/06/94,15:05:00,0,0,0,0,10,6,16,65,92,0,40,31,32
11/06/94,15:10:00,0,0,0,0,10,6,17,65,91,0,33,39,42
11/06/94,15:15:00,0,0,0,0,11,6,17,65,91,0,42,43,37
11/06/94,15:20:00,0,0,0,0,11,7,18,65,92,0,35,43,31
11/06/94,15:25:00,0,0,0,0,12,7,19,65,91,0,37,30,41
11/06/94,15:30:00,0,0,0,0,12,7,19,65,91,0,40,37,39
11/06/94,15:35:00,0,0,0,0,13,7,20,65,91,0,33,43,31
11/06/94,15:40:00,0,0,0,0,13,8,21,65,91,0,42,39,40
11/06/94,15:45:00,0,0,0,0,14,8,22,65,91,0,40,34,40
11/06/94,15:50:00,0,0,0,0,14,8,23,65,91,0,33,43,32
11/06/94,15:55:00,0,0,0,0,15,9,23,65,91,0,44,29,40
11/06/94,16:00:00,0,0,0,0,15,9,24,65,91,0,36,37,39
11/06/94,16:05:00,0,0,0,0,16,9,25,64,91,0,43,40,32
11/06/94,16:10:00,0,0,0,0,17,10,26,64,91,0,38,42,40
11/06/94,16:15:00,0,0,0,0,17,10,27,64,93,0,34,36,40
11/06/94,16:20:00,0,0,0,0,18,11,28,64,101,0,44,35,34
11/06/94,16:25:00,0,0,0,0,19,11,29,64,101,0,36,42,34
11/06/94,16:30:00,0,0,0,0,20,11,30,64,95,0,33,41,41
11/06/94,16:35:00,0,0,0,0,21,12,32,64,95,0,42,38,33
11/06/94,16:40:00,0,0,0,0,6,4,11,64,95,0,35,34,33
11/06/94,16:45:00,0,0,0,0,7,4,11,64,95,0,38,42,43
11/06/94,16:50:00,0,0,0,0,22,12,35,64,97,0,40,41,33
11/06/94,16:55:00,0,0,0,0,21,12,33,64,97,0,32,34,31
11/06/94,17:00:00,0,0,0,0,16,9,25,64,97,0,44,36,43
11/06/94,17:05:00,0,0,0,0,13,8,21,64,97,0,37,43,35
11/06/94,17:10:00,0,0,0,0,9,5,14,65,97,0,32,30,33
11/06/94,17:15:00,0,0,0,0,9,6,15,65,97,0,43,37,42
11/06/94,17:20:00,0,0,0,0,25,14,38,64,97,0,34,44,33
11/06/94,17:25:00,30,25,30,16,30,18,47,64,97,0,31,28,32
11/06/94,17:30:00,72,58,46,46,30,17,46,63,87,0,24,31,29
11/06/94,17:35:00,46,38,44,42,31,18,47,62,87,0,27,20,17
11/06/94,17:40:00,49,47,39,41,32,18,49,62,86,0,17,22,22
11/06/94,17:45:00,75,47,79,58,33,19,50,62,86,0,20,24,15
11/06/94,17:50:00,46,52,69,43,34,20,52,62,86,0,15,17,12
11/06/94,17:55:00,53,30,46,32,35,20,54,62,86,0,19,14,18
11/06/94,18:00:00,37,27,40,18,36,21,56,62,84,0,22,26,13
11/06/94,18:05:00,22,22,33,29,37,21,57,62,85,0,18,22,22
11/06/94,18:10:00,40,19,40,32,38,22,59,62,85,0,24,17,15
11/06/94,18:15:00,48,43,56,35,39,23,60,62,85,0,26,28,24
11/06/94,18:20:00,44,38,60,41,41,23,62,62,88,0,16,21,15
11/06/94,18:25:00,52,73,66,61,42,24,64,62,88,0,22,16,21
11/06/94,18:30:00,78,107,74,61,43,24,65,61,87,0,16,23,15
11/06/94,18:35:00,77,62,58,51,44,25,67,62,87,0,13,17,12
11/06/94,18:40:00,74,80,69,50,45,26,69,62,87,0,19,13,10
11/06/94,18:45:00,79,101,72,57,46,26,70,61,79,0,14,17,16
11/06/94,18:50:00,76,97,71,55,48,27,73,61,79,0,11,19,12
11/06/94,18:55:00,77,82,73,60,49,28,74,61,80,0,10,14,10
11/06/94,19:00:00,80,78,73,53,50,29,76,61,80,0,9,12,9
11/06/94,19:05:00,72,87,68,50,51,29,77,61,80,0,9,10,8
11/06/94,19:10:00,78,75,73,59,52,30,79,61,88,0,9,9,8
11/06/94,19:15:00,78,91,69,61,53,30,81,61,88,0,8,8,8
11/06/94,19:20:00,77,91,68,62,55,31,83,61,107,0,8,8,7
11/06/94,19:25:00,74,89,65,57,56,32,85,61,95,0,8,18,7
11/06/94,19:30:00,74,88,69,60,57,32,86,61,95,0,8,18,7
11/06/94,19:35:00,75,86,63,51,58,33,88,61,95,0,7,13,7
11/06/94,19:40:00,73,87,71,58,59,34,90,61,95,0,7,11,7
11/06/94,19:45:00,75,88,67,57,61,35,92,61,79,0,8,9,7
11/06/94,19:50:00,74,88,68,56,62,35,94,61,79,0,8,8,8
11/06/94,19:55:00,73,89,64,55,63,36,96,61,79,0,8,8,8
11/06/94,20:00:00,75,82,65,53,62,36,92,61,79,0,8,7,8
11/06/94,20:05:00,75,87,66,55,64,37,98,61,87,0,8,7,8
11/06/94,20:10:00,70,83,64,51,66,38,100,61,87,0,7,7,8
11/06/94,20:15:00,67,77,63,50,66,39,101,61,85,0,8,6,8
11/06/94,20:20:00,64,59,62,40,67,39,103,61,85,0,8,6,8
11/06/94,20:25:00,69,77,63,49,69,40,105,61,86,0,8,7,7
11/06/94,20:30:00,63,81,61,48,69,40,105,61,86,0,8,7,7
11/06/94,20:35:00,63,76,59,49,70,41,107,61,101,0,8,7,7
11/06/94,20:40:00,55,44,52,44,72,41,109,61,87,0,8,7,7
11/06/94,20:45:00,42,39,50,37,73,42,111,61,87,0,8,7,7
11/06/94,20:50:00,29,33,31,30,75,43,113,61,87,0,9,10,7
11/06/94,20:55:00,63,83,58,46,76,43,114,61,86,0,9,19,8
11/06/94,21:00:00,59,63,57,46,48,44,88,61,87,0,8,15,8
11/06/94,21:05:00,25,29,40,40,49,44,90,61,87,0,8,12,8
11/06/94,21:10:00,66,69,61,50,50,45,92,61,86,0,8,10,7
11/06/94,21:15:00,64,60,45,51,51,45,93,61,95,0,8,9,8
11/06/94,21:20:00,68,76,57,45,51,46,94,60,95,0,8,9,7
11/06/94,21:25:00,65,92,57,47,52,46,95,60,93,0,8,8,7
11/06/94,21:30:00,62,58,57,46,52,47,96,60,93,0,8,8,7
11/06/94,21:35:00,59,75,55,39,53,48,97,60,93,0,8,7,7
11/06/94,21:40:00,49,34,45,29,54,48,98,61,93,0,8,7,7
11/06/94,21:45:00,56,60,58,41,54,49,99,61,93,0,8,7,7
11/06/94,21:50:00,65,80,54,44,55,49,100,61,95,0,12,11,7
11/06/94,21:55:00,40,22,42,46,55,49,101,61,93,0,10,13,7
11/06/94,22:00:00,60,93,46,42,56,50,102,60,92,0,9,11,8
11/06/94,22:05:00,69,90,58,50,0,0,0,61,93,0,8,10,8
11/06/94,22:10:00,67,86,61,52,0,0,0,61,93,0,8,8,8
11/06/94,22:15:00,66,89,62,39,0,0,0,61,93,0,8,8,8
11/06/94,22:20:00,0,0,3,0,57,52,105,62,94,0,18,13,16
11/06/94,22:25:00,58,83,53,42,58,52,106,61,92,0,17,22,16
11/06/94,22:30:00,47,48,35,23,58,52,106,60,85,0,13,16,12
11/06/94,22:35:00,46,17,49,23,59,53,107,61,121,0,11,13,10
11/06/94,22:40:00,56,60,60,42,59,53,108,61,120,0,10,11,9
11/06/94,22:45:00,12,13,26,18,59,53,109,61,121,0,9,10,8
11/06/94,22:50:00,66,62,65,54,0,0,0,61,121,0,11,9,7
11/06/94,22:55:00,57,78,50,31,60,54,109,60,119,0,12,15,7
11/06/94,23:00:00,61,91,56,46,0,0,0,61,120,0,11,13,7
11/06/94,23:05:00,66,98,62,51,0,0,0,61,122,0,10,11,7
11/06/94,23:10:00,71,94,59,54,0,0,0,61,122,0,9,10,7
11/06/94,23:15:00,59,85,58,50,0,0,0,61,122,0,8,8,7
11/06/94,23:20:00,69,90,57,53,0,0,0,61,122,0,8,8,7
11/06/94,23:25:00,72,88,61,55,0,0,0,61,122,0,8,7,6
11/06/94,23:30:00,72,85,59,53,0,0,0,61,122,0,7,7,8
11/06/94,23:35:00,73,85,58,53,0,0,0,61,129,0,7,7,8
11/06/94,23:40:00,73,85,43,49,0,0,0,61,138,0,7,7,7
11/06/94,23:45:00,64,85,51,50,0,0,0,61,130,0,7,7,7
11/06/94,23:50:00,68,84,61,50,0,0,0,61,129,0,7,7,7
11/06/94,23:55:00,51,63,61,60,0,0,0,61,146,0,7,8,7
11/07/94,00:00:00,73,87,57,53,0,0,0,61,129,0,8,7,7
